"datetime","temp","dp","rain_mm","uv","solar","mb","wind_mph","gust_mph","windchill","rh"
"2020-10-03 00:00:00",13.5,13.0,0.0,0.0,0,987.2,1,2,"",97
"2020-10-03 00:01:00",13.6,13.1,0.0,0.0,0,987.2,1,3,"",97
"2020-10-03 00:02:00",13.6,13.1,0.0,0.0,0,987.1,3,7,"",97
"2020-10-03 00:03:00",13.5,13.0,0.0,0.0,0,987.1,1,3,"",97
"2020-10-03 00:04:00",13.6,13.1,0.0,0.0,0,987.1,1,3,"",97
"2020-10-03 00:05:00",13.6,13.1,0.0,0.0,0,987.1,2,6,"",97
"2020-10-03 00:06:00",13.6,13.1,0.0,0.0,0,987.1,1,3,"",97
"2020-10-03 00:07:00",13.6,13.1,0.2,0.0,0,987.1,1,2,"",97
"2020-10-03 00:08:00",13.6,13.1,0.2,0.0,0,987.0,1,2,"",97
"2020-10-03 00:09:00",13.6,13.1,0.2,0.0,0,987.1,1,2,"",97
"2020-10-03 00:10:00",13.6,13.1,0.2,0.0,0,987.0,3,6,"",97
"2020-10-03 00:11:00",13.6,13.1,0.2,0.0,0,987.0,1,2,"",97
"2020-10-03 00:12:00",13.6,13.1,0.2,0.0,0,987.0,1,3,"",97
"2020-10-03 00:13:00",13.6,13.1,0.4,0.0,0,987.0,1,2,"",97
"2020-10-03 00:14:00",13.6,13.1,0.4,0.0,0,987.0,1,2,"",97
"2020-10-03 00:15:00",13.6,13.1,0.4,0.0,0,987.0,2,5,"",97
"2020-10-03 00:16:00",13.6,13.1,0.6,0.0,0,987.0,1,2,"",97
"2020-10-03 00:17:00",13.6,13.1,0.6,0.0,0,987.0,1,1,"",97
"2020-10-03 00:18:00",13.6,13.1,0.8,0.0,0,987.0,1,2,"",97
"2020-10-03 00:19:00",13.6,13.1,0.8,0.0,0,987.0,3,6,"",97
"2020-10-03 00:20:00",13.6,13.1,0.8,0.0,0,986.9,2,6,"",97
"2020-10-03 00:21:00",13.6,13.1,1.0,0.0,0,986.9,1,1,"",97
"2020-10-03 00:22:00",13.6,13.1,1.0,0.0,0,986.9,1,2,"",97
"2020-10-03 00:23:00",13.6,13.1,1.2,0.0,0,986.9,3,7,"",97
"2020-10-03 00:24:00",13.6,13.1,1.2,0.0,0,986.9,2,3,"",97
"2020-10-03 00:25:00",13.6,13.1,1.4,0.0,0,986.9,1,2,"",97
"2020-10-03 00:26:00",13.6,13.1,1.6,0.0,0,986.9,1,2,"",97
"2020-10-03 00:27:00",13.6,13.1,1.6,0.0,0,986.9,1,1,"",97
"2020-10-03 00:28:00",13.6,13.1,1.8,0.0,0,986.8,1,2,"",97
"2020-10-03 00:29:00",13.6,13.1,1.8,0.0,0,986.9,1,2,"",97
"2020-10-03 00:30:00",13.6,13.1,1.8,0.0,0,986.8,1,2,"",97
"2020-10-03 00:31:00",13.6,13.1,2.0,0.0,0,986.8,0,2,"",97
"2020-10-03 00:32:00",13.6,13.1,2.0,0.0,0,986.8,1,2,"",97
"2020-10-03 00:33:00",13.6,13.1,2.0,0.0,0,986.8,2,3,"",97
"2020-10-03 00:34:00",13.6,13.1,2.2,0.0,0,986.8,2,4,"",97
"2020-10-03 00:35:00",13.6,13.1,2.2,0.0,0,986.7,2,3,"",97
"2020-10-03 00:36:00",13.6,13.1,2.2,0.0,0,986.7,2,3,"",97
"2020-10-03 00:37:00",13.6,13.1,2.2,0.0,0,986.7,1,3,"",97
"2020-10-03 00:38:00",13.6,13.1,2.4,0.0,0,986.7,3,9,"",97
"2020-10-03 00:39:00",13.6,13.1,2.4,0.0,0,986.8,1,3,"",97
"2020-10-03 00:40:00",13.6,13.1,2.4,0.0,0,986.7,2,6,"",97
"2020-10-03 00:41:00",13.6,13.1,2.4,0.0,0,986.8,4,7,"",97
"2020-10-03 00:42:00",13.6,13.1,2.4,0.0,0,986.7,3,6,"",97
"2020-10-03 00:43:00",13.6,13.1,2.6,0.0,0,986.7,2,3,"",97
"2020-10-03 00:44:00",13.7,13.2,2.6,0.0,0,986.7,3,4,"",97
"2020-10-03 00:45:00",13.6,13.1,2.6,0.0,0,986.7,1,4,"",97
"2020-10-03 00:46:00",13.6,13.1,2.6,0.0,0,986.7,2,3,"",97
"2020-10-03 00:47:00",13.7,13.2,2.6,0.0,0,986.7,2,4,"",97
"2020-10-03 00:48:00",13.7,13.2,2.6,0.0,0,986.7,2,3,"",97
"2020-10-03 00:49:00",13.7,13.2,2.8,0.0,0,986.8,4,8,"",97
"2020-10-03 00:50:00",13.7,13.2,2.8,0.0,0,986.6,4,8,"",97
"2020-10-03 00:51:00",13.7,13.2,2.8,0.0,0,986.7,3,7,"",97
"2020-10-03 00:52:00",13.7,13.2,2.8,0.0,0,986.7,1,2,"",97
"2020-10-03 00:53:00",13.7,13.2,2.8,0.0,0,986.7,3,6,"",97
"2020-10-03 00:54:00",13.7,13.2,3.0,0.0,0,986.7,3,5,"",97
"2020-10-03 00:55:00",13.7,13.2,3.0,0.0,0,986.7,3,6,"",97
"2020-10-03 00:56:00",13.7,13.2,3.0,0.0,0,986.7,3,10,"",97
"2020-10-03 00:57:00",13.7,13.2,3.0,0.0,0,986.7,4,9,"",97
"2020-10-03 00:58:00",13.7,13.2,3.0,0.0,0,986.7,2,6,"",97
"2020-10-03 00:59:00",13.7,13.2,3.0,0.0,0,986.8,4,8,"",97
"2020-10-03 01:00:00",13.7,13.2,3.0,0.0,0,986.7,2,4,"",97
"2020-10-03 01:01:00",13.7,13.2,3.2,0.0,0,986.7,2,3,"",97
"2020-10-03 01:02:00",13.7,13.2,3.2,0.0,0,986.6,2,3,"",97
"2020-10-03 01:03:00",13.7,13.2,3.2,0.0,0,986.7,2,4,"",97
"2020-10-03 01:04:00",13.7,13.2,3.2,0.0,0,986.6,4,9,"",97
"2020-10-03 01:05:00",13.7,13.2,3.2,0.0,0,986.6,3,6,"",97
"2020-10-03 01:06:00",13.7,13.2,3.2,0.0,0,986.6,2,3,"",97
"2020-10-03 01:07:00",13.7,13.2,3.2,0.0,0,986.6,2,3,"",97
"2020-10-03 01:08:00",13.7,13.2,3.2,0.0,0,986.7,2,4,"",97
"2020-10-03 01:09:00",13.7,13.2,3.2,0.0,0,986.6,2,3,"",97
"2020-10-03 01:10:00",13.7,13.2,3.4,0.0,0,986.6,2,3,"",97
"2020-10-03 01:11:00",13.7,13.2,3.4,0.0,0,986.7,2,4,"",97
"2020-10-03 01:12:00",13.7,13.2,3.4,0.0,0,986.7,2,3,"",97
"2020-10-03 01:13:00",13.7,13.2,3.4,0.0,0,986.6,2,5,"",97
"2020-10-03 01:14:00",13.7,13.2,3.4,0.0,0,986.5,2,3,"",97
"2020-10-03 01:15:00",13.7,13.2,3.4,0.0,0,986.6,2,4,"",97
"2020-10-03 01:16:00",13.7,13.2,3.4,0.0,0,986.6,2,4,"",97
"2020-10-03 01:17:00",13.7,13.2,3.4,0.0,0,986.5,2,4,"",97
"2020-10-03 01:18:00",13.7,13.2,3.6,0.0,0,986.6,2,3,"",97
"2020-10-03 01:19:00",13.7,13.2,3.6,0.0,0,986.5,1,2,"",97
"2020-10-03 01:20:00",13.7,13.2,3.6,0.0,0,986.5,2,4,"",97
"2020-10-03 01:21:00",13.7,13.2,3.6,0.0,0,986.6,2,3,"",97
"2020-10-03 01:22:00",13.7,13.2,3.6,0.0,0,986.6,2,2,"",97
"2020-10-03 01:23:00",13.7,13.2,3.6,0.0,0,986.5,1,2,"",97
"2020-10-03 01:24:00",13.7,13.2,3.6,0.0,0,986.5,1,3,"",97
"2020-10-03 01:25:00",13.7,13.2,3.8,0.0,0,986.6,2,3,"",97
"2020-10-03 01:26:00",13.7,13.2,3.8,0.0,0,986.5,4,6,"",97
"2020-10-03 01:27:00",13.7,13.2,3.8,0.0,0,986.5,2,4,"",97
"2020-10-03 01:28:00",13.7,13.2,3.8,0.0,0,986.4,2,4,"",97
"2020-10-03 01:29:00",13.7,13.2,3.8,0.0,0,986.4,2,3,"",97
"2020-10-03 01:30:00",13.7,13.2,3.8,0.0,0,986.4,4,6,"",97
"2020-10-03 01:31:00",13.7,13.2,3.8,0.0,0,986.4,2,3,"",97
"2020-10-03 01:32:00",13.7,13.2,3.8,0.0,0,986.4,4,7,"",97
"2020-10-03 01:33:00",13.7,13.2,4.0,0.0,0,986.4,2,4,"",97
"2020-10-03 01:34:00",13.7,13.2,4.0,0.0,0,986.3,2,4,"",97
"2020-10-03 01:35:00",13.7,13.2,4.0,0.0,0,986.4,2,3,"",97
"2020-10-03 01:36:00",13.7,13.2,4.0,0.0,0,986.3,1,3,"",97
"2020-10-03 01:37:00",13.7,13.2,4.0,0.0,0,986.3,2,4,"",97
"2020-10-03 01:38:00",13.7,13.2,4.0,0.0,0,986.3,2,3,"",97
"2020-10-03 01:39:00",13.7,13.2,4.0,0.0,0,986.3,2,3,"",97
"2020-10-03 01:40:00",13.7,13.2,4.0,0.0,0,986.3,2,5,"",97
"2020-10-03 01:41:00",13.7,13.2,4.0,0.0,0,986.3,2,4,"",97
"2020-10-03 01:42:00",13.7,13.2,4.0,0.0,0,986.3,2,3,"",97
"2020-10-03 01:43:00",13.7,13.2,4.0,0.0,0,986.4,3,5,"",97
"2020-10-03 01:44:00",13.7,13.2,4.0,0.0,0,986.4,2,3,"",97
"2020-10-03 01:45:00",13.7,13.2,4.2,0.0,0,986.3,2,4,"",97
"2020-10-03 01:46:00",13.7,13.2,4.2,0.0,0,986.3,2,4,"",97
"2020-10-03 01:47:00",13.7,13.2,4.2,0.0,0,986.3,3,5,"",97
"2020-10-03 01:48:00",13.7,13.2,4.2,0.0,0,986.3,2,4,"",97
"2020-10-03 01:49:00",13.7,13.2,4.2,0.0,0,986.3,2,5,"",97
"2020-10-03 01:50:00",13.7,13.2,4.2,0.0,0,986.2,3,10,"",97
"2020-10-03 01:51:00",13.7,13.2,4.2,0.0,0,986.2,3,4,"",97
"2020-10-03 01:52:00",13.7,13.2,4.2,0.0,0,986.2,2,6,"",97
"2020-10-03 01:53:00",13.7,13.2,4.2,0.0,0,986.2,2,4,"",97
"2020-10-03 01:54:00",13.7,13.2,4.4,0.0,0,986.2,2,4,"",97
"2020-10-03 01:55:00",13.7,13.2,4.4,0.0,0,986.1,2,4,"",97
"2020-10-03 01:56:00",13.7,13.2,4.4,0.0,0,986.1,2,3,"",97
"2020-10-03 01:57:00",13.7,13.2,4.4,0.0,0,986.1,2,3,"",97
"2020-10-03 01:58:00",13.7,13.2,4.4,0.0,0,986.1,2,4,"",97
"2020-10-03 01:59:00",13.7,13.2,4.4,0.0,0,986.0,2,3,"",97
"2020-10-03 02:00:00",13.7,13.2,4.4,0.0,0,986.0,2,3,"",97
"2020-10-03 02:01:00",13.7,13.2,4.6,0.0,0,986.0,2,3,"",97
"2020-10-03 02:02:00",13.7,13.2,4.6,0.0,0,986.0,2,3,"",97
"2020-10-03 02:03:00",13.7,13.2,4.6,0.0,0,986.0,3,8,"",97
"2020-10-03 02:04:00",13.7,13.2,4.6,0.0,0,986.0,1,3,"",97
"2020-10-03 02:05:00",13.7,13.2,4.6,0.0,0,986.0,2,3,"",97
"2020-10-03 02:06:00",13.7,13.2,4.6,0.0,0,986.0,4,6,"",97
"2020-10-03 02:07:00",13.7,13.2,4.8,0.0,0,986.0,2,4,"",97
"2020-10-03 02:08:00",13.6,13.1,4.8,0.0,0,986.0,2,4,"",97
"2020-10-03 02:09:00",13.7,13.2,4.8,0.0,0,986.0,2,4,"",97
"2020-10-03 02:10:00",13.7,13.2,4.8,0.0,0,986.0,3,4,"",97
"2020-10-03 02:11:00",13.7,13.2,4.8,0.0,0,985.9,2,3,"",97
"2020-10-03 02:12:00",13.7,13.2,4.8,0.0,0,986.0,2,4,"",97
"2020-10-03 02:13:00",13.6,13.1,5.0,0.0,0,985.9,3,7,"",97
"2020-10-03 02:14:00",13.7,13.2,5.0,0.0,0,985.9,2,4,"",97
"2020-10-03 02:15:00",13.6,13.1,5.0,0.0,0,985.9,2,4,"",97
"2020-10-03 02:16:00",13.6,13.1,5.0,0.0,0,985.9,2,4,"",97
"2020-10-03 02:17:00",13.6,13.1,5.0,0.0,0,985.9,3,5,"",97
"2020-10-03 02:18:00",13.6,13.1,5.0,0.0,0,985.8,2,6,"",97
"2020-10-03 02:19:00",13.7,13.2,5.0,0.0,0,985.8,3,8,"",97
"2020-10-03 02:20:00",13.6,13.1,5.2,0.0,0,985.8,2,6,"",97
"2020-10-03 02:21:00",13.6,13.1,5.2,0.0,0,985.9,3,6,"",97
"2020-10-03 02:22:00",13.6,13.1,5.2,0.0,0,985.9,3,4,"",97
"2020-10-03 02:23:00",13.6,13.1,5.2,0.0,0,985.8,2,3,"",97
"2020-10-03 02:24:00",13.6,13.1,5.2,0.0,0,985.8,3,5,"",97
"2020-10-03 02:25:00",13.6,13.1,5.4,0.0,0,985.8,2,4,"",97
"2020-10-03 02:26:00",13.6,13.1,5.4,0.0,0,985.8,2,5,"",97
"2020-10-03 02:27:00",13.6,13.1,5.4,0.0,0,985.8,2,4,"",97
"2020-10-03 02:28:00",13.6,13.1,5.4,0.0,0,985.8,4,13,"",97
"2020-10-03 02:29:00",13.6,13.1,5.4,0.0,0,985.8,3,4,"",97
"2020-10-03 02:30:00",13.6,13.1,5.6,0.0,0,985.8,3,5,"",97
"2020-10-03 02:31:00",13.6,13.1,5.6,0.0,0,985.8,2,3,"",97
"2020-10-03 02:32:00",13.6,13.1,5.8,0.0,0,985.8,2,5,"",97
"2020-10-03 02:33:00",13.6,13.1,5.8,0.0,0,985.8,2,3,"",97
"2020-10-03 02:34:00",13.6,13.1,5.8,0.0,0,985.7,2,3,"",97
"2020-10-03 02:35:00",13.6,13.1,5.8,0.0,0,985.7,2,4,"",97
"2020-10-03 02:36:00",13.6,13.1,5.8,0.0,0,985.7,1,2,"",97
"2020-10-03 02:37:00",13.6,13.1,6.0,0.0,0,985.7,2,3,"",97
"2020-10-03 02:38:00",13.6,13.1,6.0,0.0,0,985.6,2,3,"",97
"2020-10-03 02:39:00",13.6,13.1,6.0,0.0,0,985.5,2,4,"",97
"2020-10-03 02:40:00",13.6,13.1,6.0,0.0,0,985.5,2,3,"",97
"2020-10-03 02:41:00",13.6,13.1,6.0,0.0,0,985.5,2,4,"",97
"2020-10-03 02:42:00",13.6,13.1,6.2,0.0,0,985.5,2,3,"",97
"2020-10-03 02:43:00",13.6,13.1,6.2,0.0,0,985.5,3,4,"",97
"2020-10-03 02:44:00",13.6,13.1,6.2,0.0,0,985.4,3,4,"",97
"2020-10-03 02:45:00",13.6,13.1,6.2,0.0,0,985.4,3,6,"",97
"2020-10-03 02:46:00",13.6,13.1,6.2,0.0,0,985.4,3,6,"",97
"2020-10-03 02:47:00",13.6,13.1,6.4,0.0,0,985.5,1,3,"",97
"2020-10-03 02:48:00",13.6,13.1,6.4,0.0,0,985.4,2,4,"",97
"2020-10-03 02:49:00",13.6,13.1,6.4,0.0,0,985.4,1,3,"",97
"2020-10-03 02:50:00",13.6,13.1,6.4,0.0,0,985.5,2,4,"",97
"2020-10-03 02:51:00",13.6,13.1,6.4,0.0,0,985.5,3,4,"",97
"2020-10-03 02:52:00",13.6,13.1,6.4,0.0,0,985.5,2,4,"",97
"2020-10-03 02:53:00",13.6,13.1,6.4,0.0,0,985.5,3,4,"",97
"2020-10-03 02:54:00",13.6,13.1,6.4,0.0,0,985.5,2,4,"",97
"2020-10-03 02:55:00",13.6,13.1,6.4,0.0,0,985.5,2,3,"",97
"2020-10-03 02:56:00",13.5,13.0,6.6,0.0,0,985.5,3,4,"",97
"2020-10-03 02:57:00",13.6,13.1,6.6,0.0,0,985.5,2,3,"",97
"2020-10-03 02:58:00",13.6,13.1,6.6,0.0,0,985.4,1,3,"",97
"2020-10-03 02:59:00",13.6,13.1,6.6,0.0,0,985.5,2,4,"",97
"2020-10-03 03:00:00",13.6,13.1,6.6,0.0,0,985.3,2,4,"",97
"2020-10-03 03:01:00",13.6,13.1,6.6,0.0,0,985.4,2,2,"",97
"2020-10-03 03:02:00",13.6,13.1,6.8,0.0,0,985.4,2,4,"",97
"2020-10-03 03:03:00",13.6,13.1,6.8,0.0,0,985.3,1,2,"",97
"2020-10-03 03:04:00",13.5,13.0,6.8,0.0,0,985.3,1,2,"",97
"2020-10-03 03:05:00",13.6,13.1,7.0,0.0,0,985.3,2,4,"",97
"2020-10-03 03:06:00",13.6,13.1,7.0,0.0,0,985.2,2,3,"",97
"2020-10-03 03:07:00",13.6,13.1,7.0,0.0,0,985.3,2,3,"",97
"2020-10-03 03:08:00",13.6,13.1,7.0,0.0,0,985.3,1,2,"",97
"2020-10-03 03:09:00",13.6,13.1,7.0,0.0,0,985.3,3,7,"",97
"2020-10-03 03:10:00",13.6,13.1,7.0,0.0,0,985.3,1,3,"",97
"2020-10-03 03:11:00",13.6,13.1,7.0,0.0,0,985.2,2,3,"",97
"2020-10-03 03:12:00",13.6,13.1,7.0,0.0,0,985.2,2,3,"",97
"2020-10-03 03:13:00",13.6,13.1,7.0,0.0,0,985.2,1,3,"",97
"2020-10-03 03:14:00",13.6,13.1,7.2,0.0,0,985.2,2,3,"",97
"2020-10-03 03:15:00",13.6,13.1,7.2,0.0,0,985.2,2,3,"",97
"2020-10-03 03:16:00",13.6,13.1,7.2,0.0,0,985.2,2,3,"",97
"2020-10-03 03:17:00",13.6,13.1,7.2,0.0,0,985.2,2,3,"",97
"2020-10-03 03:18:00",13.6,13.1,7.2,0.0,0,985.2,3,5,"",97
"2020-10-03 03:19:00",13.6,13.1,7.2,0.0,0,985.3,3,5,"",97
"2020-10-03 03:20:00",13.6,13.1,7.2,0.0,0,985.2,3,6,"",97
"2020-10-03 03:21:00",13.6,13.1,7.4,0.0,0,985.2,2,3,"",97
"2020-10-03 03:22:00",13.6,13.1,7.4,0.0,0,985.2,2,3,"",97
"2020-10-03 03:23:00",13.6,13.1,7.4,0.0,0,985.2,3,4,"",97
"2020-10-03 03:24:00",13.6,13.1,7.4,0.0,0,985.2,2,4,"",97
"2020-10-03 03:25:00",13.6,13.1,7.6,0.0,0,985.2,2,3,"",97
"2020-10-03 03:26:00",13.6,13.1,7.6,0.0,0,985.1,2,4,"",97
"2020-10-03 03:27:00",13.6,13.1,7.6,0.0,0,985.1,2,3,"",97
"2020-10-03 03:28:00",13.6,13.1,7.8,0.0,0,985.1,3,4,"",97
"2020-10-03 03:29:00",13.6,13.1,7.8,0.0,0,985.0,2,3,"",97
"2020-10-03 03:30:00",13.6,13.1,7.8,0.0,0,985.0,2,3,"",97
"2020-10-03 03:31:00",13.6,13.1,7.8,0.0,0,985.0,2,4,"",97
"2020-10-03 03:32:00",13.6,13.1,7.8,0.0,0,984.9,3,4,"",97
"2020-10-03 03:33:00",13.6,13.1,7.8,0.0,0,984.9,3,5,"",97
"2020-10-03 03:34:00",13.6,13.1,8.0,0.0,0,984.9,2,4,"",97
"2020-10-03 03:35:00",13.6,13.1,8.0,0.0,0,984.9,2,3,"",97
"2020-10-03 03:36:00",13.6,13.1,8.0,0.0,0,984.9,3,7,"",97
"2020-10-03 03:37:00",13.6,13.1,8.0,0.0,0,984.9,3,4,"",97
"2020-10-03 03:38:00",13.6,13.1,8.0,0.0,0,984.9,3,5,"",97
"2020-10-03 03:39:00",13.6,13.1,8.2,0.0,0,984.9,4,6,"",97
"2020-10-03 03:40:00",13.7,13.2,8.2,0.0,0,984.9,3,6,"",97
"2020-10-03 03:41:00",13.6,13.1,8.2,0.0,0,984.8,3,5,"",97
"2020-10-03 03:42:00",13.7,13.2,8.2,0.0,0,984.9,2,4,"",97
"2020-10-03 03:43:00",13.7,13.2,8.2,0.0,0,984.8,3,6,"",97
"2020-10-03 03:44:00",13.7,13.2,8.2,0.0,0,984.9,2,6,"",97
"2020-10-03 03:45:00",13.7,13.2,8.4,0.0,0,984.8,2,8,"",97
"2020-10-03 03:46:00",13.7,13.2,8.4,0.0,0,984.8,3,8,"",97
"2020-10-03 03:47:00",13.7,13.2,8.4,0.0,0,984.9,2,6,"",97
"2020-10-03 03:48:00",13.7,13.2,8.4,0.0,0,984.8,2,3,"",97
"2020-10-03 03:49:00",13.7,13.2,8.4,0.0,0,984.9,3,6,"",97
"2020-10-03 03:50:00",13.7,13.2,8.4,0.0,0,984.8,3,5,"",97
"2020-10-03 03:51:00",13.7,13.2,8.4,0.0,0,984.9,4,9,"",97
"2020-10-03 03:52:00",13.7,13.2,8.4,0.0,0,984.9,3,5,"",97
"2020-10-03 03:53:00",13.7,13.2,8.6,0.0,0,984.9,3,7,"",97
"2020-10-03 03:54:00",13.7,13.2,8.6,0.0,0,984.8,3,9,"",97
"2020-10-03 03:55:00",13.7,13.2,8.6,0.0,0,984.8,2,3,"",97
"2020-10-03 03:56:00",13.8,13.3,8.6,0.0,0,984.8,3,4,"",97
"2020-10-03 03:57:00",13.7,13.2,8.6,0.0,0,984.9,2,4,"",97
"2020-10-03 03:58:00",13.7,13.2,8.8,0.0,0,984.9,1,3,"",97
"2020-10-03 03:59:00",13.7,13.2,8.8,0.0,0,984.9,2,5,"",97
"2020-10-03 04:00:00",13.8,13.3,8.8,0.0,0,984.9,2,3,"",97
"2020-10-03 04:01:00",13.8,13.3,9.0,0.0,0,984.9,4,7,"",97
"2020-10-03 04:02:00",13.8,13.3,9.0,0.0,0,984.8,3,7,"",97
"2020-10-03 04:03:00",13.8,13.3,9.0,0.0,0,984.8,3,9,"",97
"2020-10-03 04:04:00",13.8,13.3,9.0,0.0,0,984.8,3,5,"",97
"2020-10-03 04:05:00",13.8,13.3,9.2,0.0,0,984.8,3,7,"",97
"2020-10-03 04:06:00",13.8,13.3,9.2,0.0,0,984.9,2,5,"",97
"2020-10-03 04:07:00",13.8,13.3,9.2,0.0,0,984.8,2,4,"",97
"2020-10-03 04:08:00",13.8,13.3,9.4,0.0,0,984.8,2,3,"",97
"2020-10-03 04:09:00",13.8,13.3,9.4,0.0,0,984.8,4,8,"",97
"2020-10-03 04:10:00",13.8,13.3,9.4,0.0,0,984.9,6,14,"",97
"2020-10-03 04:11:00",13.8,13.3,9.4,0.0,0,984.8,3,5,"",97
"2020-10-03 04:12:00",13.8,13.3,9.4,0.0,0,984.9,1,2,"",97
"2020-10-03 04:13:00",13.8,13.3,9.6,0.0,0,984.8,2,4,"",97
"2020-10-03 04:14:00",13.9,13.4,9.6,0.0,0,984.8,4,8,"",97
"2020-10-03 04:15:00",13.9,13.4,9.6,0.0,0,984.9,3,5,"",97
"2020-10-03 04:16:00",13.9,13.4,9.6,0.0,0,984.8,2,7,"",97
"2020-10-03 04:17:00",13.9,13.4,9.6,0.0,0,984.8,2,5,"",97
"2020-10-03 04:18:00",13.9,13.4,9.6,0.0,0,984.8,3,5,"",97
"2020-10-03 04:19:00",13.9,13.4,9.6,0.0,0,984.8,3,9,"",97
"2020-10-03 04:20:00",13.9,13.4,9.8,0.0,0,984.8,3,5,"",97
"2020-10-03 04:21:00",13.9,13.4,9.8,0.0,0,984.8,3,6,"",97
"2020-10-03 04:22:00",13.9,13.4,9.8,0.0,0,984.8,3,5,"",97
"2020-10-03 04:23:00",13.9,13.4,9.8,0.0,0,984.7,2,8,"",97
"2020-10-03 04:24:00",13.9,13.4,9.8,0.0,0,984.7,4,6,"",97
"2020-10-03 04:25:00",13.9,13.4,9.8,0.0,0,984.8,3,8,"",97
"2020-10-03 04:26:00",13.9,13.4,9.8,0.0,0,984.8,3,5,"",97
"2020-10-03 04:27:00",13.9,13.4,10.0,0.0,0,984.8,2,5,"",97
"2020-10-03 04:28:00",13.9,13.4,10.0,0.0,0,984.7,2,3,"",97
"2020-10-03 04:29:00",13.9,13.4,10.0,0.0,0,984.7,3,6,"",97
"2020-10-03 04:30:00",13.9,13.4,10.0,0.0,0,984.7,2,4,"",97
"2020-10-03 04:31:00",13.9,13.4,10.0,0.0,0,984.7,5,9,"",97
"2020-10-03 04:32:00",13.9,13.4,10.0,0.0,0,984.6,3,5,"",97
"2020-10-03 04:33:00",13.9,13.4,10.0,0.0,0,984.7,3,9,"",97
"2020-10-03 04:34:00",14.0,13.5,10.0,0.0,0,984.6,3,5,"",97
"2020-10-03 04:35:00",14.0,13.5,10.0,0.0,0,984.6,3,4,"",97
"2020-10-03 04:36:00",14.0,13.5,10.0,0.0,0,984.6,1,3,"",97
"2020-10-03 04:37:00",14.0,13.5,10.0,0.0,0,984.6,2,4,"",97
"2020-10-03 04:38:00",14.0,13.5,10.0,0.0,0,984.6,4,7,"",97
"2020-10-03 04:39:00",14.0,13.5,10.2,0.0,0,984.6,2,4,"",97
"2020-10-03 04:40:00",13.9,13.4,10.2,0.0,0,984.6,3,5,"",97
"2020-10-03 04:41:00",14.0,13.5,10.2,0.0,0,984.6,3,9,"",97
"2020-10-03 04:42:00",14.0,13.5,10.2,0.0,0,984.5,4,9,"",97
"2020-10-03 04:43:00",14.0,13.5,10.2,0.0,0,984.5,2,3,"",97
"2020-10-03 04:44:00",14.0,13.5,10.2,0.0,0,984.6,4,8,"",97
"2020-10-03 04:45:00",14.0,13.5,10.2,0.0,0,984.6,2,5,"",97
"2020-10-03 04:46:00",14.0,13.5,10.2,0.0,0,984.7,3,9,"",97
"2020-10-03 04:47:00",14.1,13.6,10.2,0.0,0,984.7,3,5,"",97
"2020-10-03 04:48:00",14.1,13.6,10.2,0.0,0,984.7,2,6,"",97
"2020-10-03 04:49:00",14.1,13.6,10.2,0.0,0,984.7,4,7,"",97
"2020-10-03 04:50:00",14.0,13.5,10.2,0.0,0,984.9,4,8,"",97
"2020-10-03 04:51:00",14.1,13.6,10.2,0.0,0,984.9,3,6,"",97
"2020-10-03 04:52:00",14.1,13.6,10.2,0.0,0,984.9,3,5,"",97
"2020-10-03 04:53:00",14.1,13.6,10.2,0.0,0,984.9,2,5,"",97
"2020-10-03 04:54:00",14.1,13.6,10.2,0.0,0,984.9,2,4,"",97
"2020-10-03 04:55:00",14.1,13.6,10.2,0.0,0,984.9,2,3,"",97
"2020-10-03 04:56:00",14.1,13.6,10.4,0.0,0,984.8,4,8,"",97
"2020-10-03 04:57:00",14.1,13.6,10.4,0.0,0,984.8,3,7,"",97
"2020-10-03 04:58:00",14.1,13.6,10.6,0.0,0,984.8,3,8,"",97
"2020-10-03 04:59:00",14.1,13.6,10.6,0.0,0,984.8,2,3,"",97
"2020-10-03 05:00:00",14.1,13.6,10.8,0.0,0,984.8,1,3,"",97
"2020-10-03 05:01:00",14.1,13.6,10.8,0.0,0,984.8,3,6,"",97
"2020-10-03 05:02:00",14.1,13.6,11.0,0.0,0,984.8,2,6,"",97
"2020-10-03 05:03:00",14.1,13.6,11.0,0.0,0,984.8,3,5,"",97
"2020-10-03 05:04:00",14.1,13.6,11.0,0.0,0,984.7,2,5,"",97
"2020-10-03 05:05:00",14.1,13.6,11.0,0.0,0,984.7,3,4,"",97
"2020-10-03 05:06:00",14.1,13.6,11.2,0.0,0,984.7,2,4,"",97
"2020-10-03 05:07:00",14.1,13.6,11.2,0.0,0,984.7,3,5,"",97
"2020-10-03 05:08:00",14.1,13.6,11.2,0.0,0,984.7,5,9,"",97
"2020-10-03 05:09:00",14.1,13.6,11.2,0.0,0,984.7,2,4,"",97
"2020-10-03 05:10:00",14.1,13.6,11.2,0.0,0,984.8,3,5,"",97
"2020-10-03 05:11:00",14.1,13.6,11.2,0.0,0,984.7,3,7,"",97
"2020-10-03 05:12:00",14.1,13.6,11.2,0.0,0,984.7,3,5,"",97
"2020-10-03 05:13:00",14.1,13.6,11.2,0.0,0,984.7,3,6,"",97
"2020-10-03 05:14:00",14.1,13.6,11.4,0.0,0,984.7,2,4,"",97
"2020-10-03 05:15:00",14.1,13.6,11.4,0.0,0,984.7,2,3,"",97
"2020-10-03 05:16:00",14.1,13.6,11.4,0.0,0,984.8,2,4,"",97
"2020-10-03 05:17:00",14.1,13.6,11.4,0.0,0,984.8,2,5,"",97
"2020-10-03 05:18:00",14.1,13.6,11.4,0.0,0,984.8,2,4,"",97
"2020-10-03 05:19:00",14.1,13.6,11.4,0.0,0,984.8,3,7,"",97
"2020-10-03 05:20:00",14.1,13.6,11.6,0.0,0,984.8,4,7,"",97
"2020-10-03 05:21:00",14.1,13.6,11.6,0.0,0,984.8,1,3,"",97
"2020-10-03 05:22:00",14.1,13.6,11.6,0.0,0,984.8,2,5,"",97
"2020-10-03 05:23:00",14.1,13.6,11.6,0.0,0,984.8,3,5,"",97
"2020-10-03 05:24:00",14.1,13.6,11.6,0.0,0,984.8,3,5,"",97
"2020-10-03 05:25:00",14.1,13.6,11.6,0.0,0,984.8,2,3,"",97
"2020-10-03 05:26:00",14.1,13.6,11.6,0.0,0,984.8,2,4,"",97
"2020-10-03 05:27:00",14.1,13.6,11.6,0.0,0,984.8,2,4,"",97
"2020-10-03 05:28:00",14.1,13.6,11.8,0.0,0,984.7,3,6,"",97
"2020-10-03 05:29:00",14.1,13.6,11.8,0.0,0,984.8,3,6,"",97
"2020-10-03 05:30:00",14.1,13.6,11.8,0.0,0,984.7,3,5,"",97
"2020-10-03 05:31:00",14.1,13.6,11.8,0.0,0,984.7,2,3,"",97
"2020-10-03 05:32:00",14.1,13.6,11.8,0.0,0,984.7,2,5,"",97
"2020-10-03 05:33:00",14.1,13.6,12.0,0.0,0,984.7,3,6,"",97
"2020-10-03 05:34:00",14.1,13.6,12.0,0.0,0,984.7,2,3,"",97
"2020-10-03 05:35:00",14.1,13.6,12.0,0.0,0,984.7,2,3,"",97
"2020-10-03 05:36:00",14.1,13.6,12.0,0.0,0,984.7,4,6,"",97
"2020-10-03 05:37:00",14.1,13.6,12.2,0.0,0,984.7,3,6,"",97
"2020-10-03 05:38:00",14.1,13.6,12.2,0.0,0,984.7,2,5,"",97
"2020-10-03 05:39:00",14.1,13.6,12.2,0.0,0,984.7,2,4,"",97
"2020-10-03 05:40:00",14.1,13.6,12.4,0.0,0,984.7,2,5,"",97
"2020-10-03 05:41:00",14.1,13.6,12.4,0.0,0,984.8,1,3,"",97
"2020-10-03 05:42:00",14.1,13.6,12.6,0.0,0,984.7,2,4,"",97
"2020-10-03 05:43:00",14.1,13.6,12.6,0.0,0,984.7,1,6,"",97
"2020-10-03 05:44:00",14.1,13.6,12.6,0.0,0,984.7,3,6,"",97
"2020-10-03 05:45:00",14.1,13.6,12.6,0.0,0,984.7,1,2,"",97
"2020-10-03 05:46:00",14.2,13.7,12.8,0.0,0,984.7,2,5,"",97
"2020-10-03 05:47:00",14.1,13.6,12.8,0.0,0,984.7,3,6,"",97
"2020-10-03 05:48:00",14.1,13.6,12.8,0.0,0,984.8,1,3,"",97
"2020-10-03 05:49:00",14.1,13.6,12.8,0.0,0,984.8,2,5,"",97
"2020-10-03 05:50:00",14.2,13.7,12.8,0.0,0,984.9,2,4,"",97
"2020-10-03 05:51:00",14.2,13.7,13.0,0.0,0,984.8,2,5,"",97
"2020-10-03 05:52:00",14.2,13.7,13.0,0.0,0,984.9,3,6,"",97
"2020-10-03 05:53:00",14.2,13.7,13.2,0.0,0,984.9,2,5,"",97
"2020-10-03 05:54:00",14.2,13.7,13.2,0.0,0,984.8,1,3,"",97
"2020-10-03 05:55:00",14.2,13.7,13.2,0.0,0,984.8,1,4,"",97
"2020-10-03 05:56:00",14.2,13.7,13.4,0.0,0,984.8,2,4,"",97
"2020-10-03 05:57:00",14.2,13.7,13.4,0.0,0,984.8,2,5,"",97
"2020-10-03 05:58:00",14.2,13.7,13.4,0.0,0,984.8,2,3,"",97
"2020-10-03 05:59:00",14.2,13.7,13.4,0.0,0,984.8,2,3,"",97
"2020-10-03 06:00:00",14.2,13.7,13.4,0.0,0,984.7,2,4,"",97
"2020-10-03 06:01:00",14.2,13.7,13.4,0.0,0,984.8,1,2,"",97
"2020-10-03 06:02:00",14.2,13.7,13.4,0.0,0,984.8,2,2,"",97
"2020-10-03 06:03:00",14.2,13.7,13.6,0.0,0,984.8,2,4,"",97
"2020-10-03 06:04:00",14.2,13.7,13.6,0.0,0,984.8,4,8,"",97
"2020-10-03 06:05:00",14.2,13.7,13.6,0.0,0,984.8,2,3,"",97
"2020-10-03 06:06:00",14.2,13.7,13.6,0.0,0,984.8,1,2,"",97
"2020-10-03 06:07:00",14.2,13.7,13.6,0.0,0,984.8,2,5,"",97
"2020-10-03 06:08:00",14.2,13.7,13.6,0.0,0,984.8,1,2,"",97
"2020-10-03 06:09:00",14.2,13.7,13.8,0.0,0,984.7,1,2,"",97
"2020-10-03 06:10:00",14.2,13.7,13.8,0.0,0,984.7,2,3,"",97
"2020-10-03 06:11:00",14.2,13.7,13.8,0.0,0,984.8,1,2,"",97
"2020-10-03 06:12:00",14.2,13.7,13.8,0.0,0,984.7,3,7,"",97
"2020-10-03 06:13:00",14.2,13.7,13.8,0.0,0,984.7,2,4,"",97
"2020-10-03 06:14:00",14.2,13.7,14.0,0.0,0,984.8,2,2,"",97
"2020-10-03 06:15:00",14.2,13.7,14.0,0.0,0,984.7,1,3,"",97
"2020-10-03 06:16:00",14.2,13.7,14.0,0.0,0,984.8,2,5,"",97
"2020-10-03 06:17:00",14.2,13.7,14.0,0.0,0,984.8,1,5,"",97
"2020-10-03 06:18:00",14.2,13.7,14.0,0.0,0,984.7,1,2,"",97
"2020-10-03 06:19:00",14.3,13.8,14.2,0.0,0,984.8,2,3,"",97
"2020-10-03 06:20:00",14.2,13.7,14.2,0.0,0,984.8,1,3,"",97
"2020-10-03 06:21:00",14.2,13.7,14.2,0.0,0,984.7,2,3,"",97
"2020-10-03 06:22:00",14.2,13.7,14.2,0.0,0,984.7,2,4,"",97
"2020-10-03 06:23:00",14.2,13.7,14.4,0.0,0,984.8,1,4,"",97
"2020-10-03 06:24:00",14.3,13.8,14.4,0.0,0,984.7,2,4,"",97
"2020-10-03 06:25:00",14.2,13.7,14.4,0.0,0,984.7,2,4,"",97
"2020-10-03 06:26:00",14.2,13.7,14.4,0.0,0,984.7,2,3,"",97
"2020-10-03 06:27:00",14.3,13.8,14.4,0.0,0,984.7,1,2,"",97
"2020-10-03 06:28:00",14.2,13.7,14.4,0.0,0,984.7,1,3,"",97
"2020-10-03 06:29:00",14.2,13.7,14.4,0.0,0,984.7,2,7,"",97
"2020-10-03 06:30:00",14.2,13.7,14.4,0.0,0,984.7,1,2,"",97
"2020-10-03 06:31:00",14.2,13.7,14.6,0.0,0,984.7,2,4,"",97
"2020-10-03 06:32:00",14.2,13.7,14.6,0.0,0,984.7,2,4,"",97
"2020-10-03 06:33:00",14.3,13.8,14.6,0.0,0,984.7,2,4,"",97
"2020-10-03 06:34:00",14.2,13.7,14.6,0.0,0,984.8,2,3,"",97
"2020-10-03 06:35:00",14.2,13.7,14.6,0.0,0,984.8,2,5,"",97
"2020-10-03 06:36:00",14.3,13.8,14.6,0.0,0,984.9,1,2,"",97
"2020-10-03 06:37:00",14.2,13.7,14.6,0.0,0,984.8,1,2,"",97
"2020-10-03 06:38:00",14.3,13.8,14.6,0.0,0,984.9,1,3,"",97
"2020-10-03 06:39:00",14.3,13.8,14.6,0.0,0,984.9,1,2,"",97
"2020-10-03 06:40:00",14.3,13.8,14.8,0.0,0,984.9,1,2,"",97
"2020-10-03 06:41:00",14.2,13.7,14.8,0.0,0,984.9,1,2,"",97
"2020-10-03 06:42:00",14.2,13.7,14.8,0.0,0,984.9,1,2,"",97
"2020-10-03 06:43:00",14.3,13.8,14.8,0.0,0,984.9,1,2,"",97
"2020-10-03 06:44:00",14.3,13.8,14.8,0.0,0,984.9,2,3,"",97
"2020-10-03 06:45:00",14.3,13.8,14.8,0.0,0,984.9,2,4,"",97
"2020-10-03 06:46:00",14.3,13.8,14.8,0.0,0,985.0,3,5,"",97
"2020-10-03 06:47:00",14.3,13.8,14.8,0.0,0,985.0,1,2,"",97
"2020-10-03 06:48:00",14.3,13.8,14.8,0.0,0,985.0,1,2,"",97